{"data":{"norad_id":49422,"epoch":"2026-09-20T03:26:17.371968Z","epoch_age_seconds":72072,"freshness":"FRESH","line1":"1 49422U 21104Q   26263.14325662  .00002019  00000+0  68751-4 0  9999","line2":"2 49422  53.1611  63.2232 0001940  91.6744 268.4481 15.35411993268159","mean_motion":15.35411993,"eccentricity":0.000194,"inclination_deg":53.1611,"raan_deg":63.2232,"arg_perigee_deg":91.6744,"mean_anomaly_deg":268.4481,"bstar":6.8751e-5,"rev_number":26815,"period_min":93.785902843342,"perigee_km":458.37049613128,"apogee_km":461.02357573722,"semimajor_km":6837.8340359343,"source":"CELESTRAK","updated_at":"2026-09-20T09:00:39.257838Z"}}